www.pogodaiklimat.ru
ПОГОДА в Зелианополе
Время
и дата
09:35 24.07
09:55 24.07
10:15 24.07
10:35 24.07
10:55 24.07
11:15 24.07
11:35 24.07
11:55 24.07
12:15 24.07
12:35 24.07
12:55 24.07
13:15 24.07
13:35 24.07
13:55 24.07
14:15 24.07
14:35 24.07
14:55 24.07
15:15 24.07
15:35 24.07
15:55 24.07
16:15 24.07
16:35 24.07
16:55 24.07
17:15 24.07
17:35 24.07
17:55 24.07
18:15 24.07
18:35 24.07
18:55 24.07
19:15 24.07
19:35 24.07
19:55 24.07
20:15 24.07
20:35 24.07
20:55 24.07
21:35 24.07
21:55 24.07
22:15 24.07
22:35 24.07
22:55 24.07
23:15 24.07
23:35 24.07
23:55 24.07
00:15 25.07
00:35 25.07
00:55 25.07
01:15 25.07
01:35 25.07
Ветер
(напр.,м/с)
Видим. Явления Облачность Т
(С)
Тd
(С)
f
(%)
Тe
(С)
Тes
(С)
Комфортность P
(гПа)
Po
(гПа)
Тmin
(С)
Tmax
(С)
R
(мм)
R24
(мм)
S
(см)
ЮЗ 3 16 км 5/0 2700 m
[Ac]
+24.0 +19.0 74 +29 +34 душно 987.6
З 2 16 км 5/0 2700 m
[Ac]
+24.0 +19.0 74 +29 +35 душно 987.6
ЮЗ 2 16 км ясно +25.0 +19.0 69 +30 +44 душно 987.6
ЮЗ 3 16 км 5/5 690 м +26.0 +18.0 61 +30 +36 душно 987.3
ЮЗ 4 16 км 5/5 900 м +26.0 +18.0 61 +30 +35 душно 987.3
З 4 16 км 5/5 900 м +27.0 +18.0 58 +32 +37 очень
душно
986.9
ЮЗ 3 16 км 5/5 1080 м +27.0 +18.0 58 +32 +39 очень
душно
986.9
З 3 16 км 5/5 1170 м +27.0 +17.0 54 +31 +38 душно 986.6
ЮЗ 4
{7}
16 км 5/5 1110 м +28.0 +17.0 51 +32 +38 душно 986.6
ЮЗ 3
{8}
16 км 5/5 1110 м +28.0 +17.0 51 +32 +40 душно 986.3
ЮЗ 3 16 км 5/5 1230 м +28.0 +17.0 51 +32 +40 душно 986.0
ЮЗ 5 16 км 5/5 1290 м +29.0 +16.0 45 +32 +37 душно 986.0
ЮЗ 4 16 км 5/5 1290 м +29.0 +16.0 45 +32 +38 душно 985.6
Ю 4 16 км 5/5 1410 м +29.0 +16.0 45 +32 +38 душно 985.6
Ю 3
{7}
16 км 5/5 1410 м +29.0 +16.0 45 +32 +39 душно 985.6
ЮЗ 3 16 км 5/5 1500 m
[Ac]
+28.0 +15.0 45 +31 +38 душно 985.6
СЗ 3
{7}
16 км 8/5 1500 m
[Ac]
+28.0 +16.0 48 +31 +35 душно 985.6
С 2 16 км 5/5 1800 m
[Ac]
+27.0 +15.0 48 +30 +36 душно 985.6
С 3 16 км ясно +28.0 +16.0 48 +31 +42 душно 985.0
З 2 16 км ясно +29.0 +16.0 45 +32 +45 душно 985.0
З 2 16 км ясно +29.0 +17.0 48 +33 +42 очень
душно
985.0
З 2 16 км 5/5 1650 m
[Ac]
+28.0 +16.0 48 +31 +36 душно 985.3
СЗ 4 16 км 8/5 1500 m
[Ac]
+24.0 +16.0 61 +27 +29 жарко 986.0
С 5 16 км 5/5 1440 m
[Ac]
+24.0 +16.0 61 +27 +29 жарко 986.0
СЗ 2 16 км 5/0 2400 m
[Ac]
+22.0 +17.0 73 +26 +29 душно 986.3
З 3 6 км гроза с сильным дождем 8/8 240 m
[Cb]
+21.0 +18.0 83 +26 +26 душно 987.3
штиль 0 16 км 8/5 300 m
[Ac]
+20.0 +20.0 100 +23 +24 комфорт 986.9
штиль 0 16 км слабый дождь 5/5 1350 m
[Ac Ns]
+21.0 +20.0 94 +26 +27 душно 986.6
штиль 0 16 км 5/0 3300 m
[Ac]
+21.0 +20.0 94 +26 +27 душно 986.6
ЮВ 2 16 км ясно +20.0 +20.0 100 +24 +24 комфорт 986.9
штиль 0 16 км ясно +20.0 +20.0 100 +23 +24 комфорт 986.9
штиль 0 3 км дождь 10/8 420 m
[Ac Ns]
+20.0 +20.0 100 +23 +23 комфорт 986.9
штиль 0 11 км 5/5 330 м +20.0 +20.0 100 +23 +23 комфорт 987.3
штиль 0 11 км 5/0 2850 m
[Ac]
+20.0 +20.0 100 +23 +23 комфорт 987.3
штиль 0 11 км 8/0 2850 m
[Ac]
+20.0 +20.0 100 +23 +23 комфорт 987.6
штиль 0 16 км ясно +19.0 +19.0 100 +21 +21 комфорт 987.9
штиль 0 11 км ясно +19.0 +19.0 100 +21 +21 комфорт 987.6
штиль 0 4 км дымка 5/0 3600 m
[Ac]
+18.0 +18.0 100 +18 +18 987.9
штиль 0 5 км дымка 5/0 3600 m
[Ac]
+19.0 +19.0 100 +21 +21 комфорт 987.9
штиль 0 6 км дымка 5/5 1650 м +18.0 +18.0 100 +18 +18 987.9
штиль 0 8 км 5/5 30 м +19.0 +19.0 100 +21 +21 комфорт 987.9
штиль 0 8 км дымка ясно +19.0 +19.0 100 +21 +21 комфорт 987.9
штиль 0 5 км дымка ясно +18.0 +18.0 100 +18 +18 987.9
штиль 0 6 км дымка ясно +18.0 +18.0 100 +18 +18 988.2
штиль 0 8 км дымка ясно +18.0 +18.0 100 +18 +18 987.9
штиль 0 11 км ясно +18.0 +18.0 100 +18 +18 988.2
штиль 0 6 км дымка 5/0 2100 m
[Ac]
+18.0 +18.0 100 +18 +18 987.9
штиль 0 5 км дымка 5/0 2100 m
[Ac]
+18.0 +18.0 100 +18 +18 987.9
Местоположение метеостанции Zelienople Municipal Airport: широта 40.8009 долгота -80.1624 высота над уровнем моря 273 м.
В архиве по умолчанию представлена погода в Зелианополе за последние 1-2 суток. Обновление информации о фактической погоде в базе происходит ежечасно! Архивные данные за месяц целиком и за предыдущие месяцы Вы можете получить, выбрав интересующий диапазон дат из раскрывающегося списка и нажав кнопку "Ввод!".
Внимание! Архив погоды МЕТАР в базе сайта по станциям, не включенным в климатический монитор, хранится не более 60 дней. Нет смысла пытаться выбрать более раннюю дату.
*Определитесь, кто Вы:
Внимание! Время в таблицах - местное (без учета летнего времени). Для получения всемирного времени необходимо вычесть поправку, которая равна -5 ч.
Смотрите также архив погоды в соседних городах и на ближайших метеорологических станциях:
Партнеры нашего сайта:      
Пояснения к столбцам:
  • Ветер - указаны скорость ветра в м/с - средняя за 10 мин, порывы в срок и между сроками (в фигурных скобках) и направление, откуда дует ветер: С - северный,
  • СВ - северо-восточный, В - восточный, ЮВ - юго-восточный, Ю - южный, ЮЗ - юго-западный, З - западный, СЗ - северо-западный.
  • Видимость - горизонтальная дальность видимости в метрах или километрах. При видимости от 1 до 10 км при отсутствии осадков обычно наблюдается дымка, при ухудшении видимости до 1 км и менее - туман. В сухую погоду видимость может ухудшаться дымом, пылью или мглою.
  • Явления - указаны атмосферные явления, наблюдавшиеся в срок или в последний час перед сроком; фигурными скобками обозначены явления, наблюдавшиеся между сроками (за 1-3 часа до срока); квадратными скобками обозначены град или гололедные отложения с указанием их диаметра в мм.
  • Облачность - указаны через наклонную черту общая и нижняя облачность в баллах и высота нижней границы облаков в метрах; квадратными скобками обозначены формы облаков: Ci - перистые, Cs - перисто-слоистые, Cc - перисто-кучевые, Ac - высококучевые, As - высокослоистые, Sc - слоисто-кучевые, Ns - слоисто-дождевые, Cu - кучевые, Cb - кучево-дождевые. Подробнее классификацию облаков см. в Атласе облаков (PDF).
  • T - Температура воздуха - температура, измеренная на высоте 2 м над землей.
  • Td - Температура точки росы - температура, при понижении до которой содержащийся в воздухе водяной пар достигнет насыщения.
  • f - Относительная влажность воздуха - влажноcть воздуха, измеренная на высоте 2 м над землей.
  • Te - Эффективная температура - температура, которую ощущает одетый по сезону человек в тени. Характеристика душности погоды. При расчете учитывается влияние влажности воздуха и скорости ветра на теплоощущения человека.
  • Tes - Эффективная температура на солнце - температура, которую ощущает человек, с поправкой на солнечный нагрев. Характеристика знойности погоды. Зависит от высоты солнца над горизонтом, облачности и скорости ветра. Ночью, в пасмурную погоду, а также при ветре 12 м/с и более поправка равна нулю.
  • P - Атмосферное давление - приведенное к уровню моря атмосферное давление.
  • Po - Атмосферное давление - измеренное на уровне метеостанции атмосферное давление.
  • Tmin - Минимальная температура - минимум температуры воздуха на высоте 2 м над землей.
  • Tmax - Максимальная температура - максимум температуры воздуха на высоте 2 м над землей.
  • R - Количество осадков - Количество выпавших осадков за период времени, мм. При наведении курсора мыши на число - период времени, за который выпало указанное количество осадков.
  • R24 - Количество осадков - Количество выпавших осадков за 24 часа, мм.
  • S - Снежный покров - Высота снежного покрова, см. При наведении курсора мыши на число - состояние снежного покрова и степень покрытия местности в баллах.